Location: Hamilton
(43.2500°N, 79.8330°W)
Time: 18:50:06
(UTC-04:00)

Amateur Radio Satellites - All Passes

Search period start: 20 October 2014 18:20
Search period end: 21 October 2014 18:20
Location: Hamilton, 43.2500°N, 79.8330°W

Satellite Date Start Highest point End Downlink Frequencies (MHz)
Time Altitude Azimuth
SO-67 20 Oct 19:03:33 19:06:37 31° 72° (ENE) 19:09:42 435.3500 MHz FM
Hamsat 20 Oct 19:16:52 19:20:10 22° 266° (W) 19:23:29 145.90 MHz
KITSAT 1 20 Oct 19:28:11 19:32:36 15° 14° (NNE) 19:37:00 435.175 FM
STRAND 1 20 Oct 19:32:14 19:36:47 31° 96° (E) 19:41:17 ?
OPAL 20 Oct 19:34:26 19:38:57 35° 295° (WNW) 19:43:25 ?
HO-68 20 Oct 19:37:31 19:42:17 20° 53° (NE) 19:47:03 435.675 MHz FM
Saudisat 1A 20 Oct 19:37:58 19:40:04 13° 251° (WSW) 19:42:09 436.775 MHz
ISS 20 Oct 19:42:19 19:45:12 26° 16° (NNE) 19:48:04 145.800 FM
JAS-2 20 Oct 20:02:40 20:04:26 11° 278° (W) 20:06:17 435.800 - 435.900 CW/SSB, 435.910 FM
SO-67 20 Oct 20:37:37 20:39:41 15° 268° (W) 20:41:46 435.3500 MHz FM
STRAND 1 20 Oct 21:11:19 21:15:58 35° 293° (WNW) 21:20:35 ?
Oscar 11 20 Oct 21:15:08 21:18:26 22° 66° (ENE) 21:21:45 145.825 FM, Beacon 2401.500 USB
ISS 20 Oct 21:18:50 21:22:11 76° 215° (SW) 21:25:31 145.800 FM
HO-68 20 Oct 21:21:51 21:29:01 88° 73° (ENE) 21:36:15 435.675 MHz FM
KITSAT 1 20 Oct 21:23:29 21:30:50 36° 42° (NE) 21:38:08 435.175 FM
ZACube-1 20 Oct 21:50:54 21:54:34 24° 66° (ENE) 21:58:12 437.345 MHz
AO-40 20 Oct 21:52:54 23:47:42 25° 216° (SW) 03:25:30 Beacon 2401.320
RS-15 20 Oct 21:54:28 22:02:02 22° 100° (E) 22:09:30 29.354 - 29.394 USB, Beacon 29.352 USB
UKube-1 20 Oct 22:04:09 22:08:29 83° 75° (ENE) 22:12:53 145.840 MHz, 145.915 MHz
SO-50 20 Oct 22:33:06 22:37:34 36° 47° (NE) 22:42:03 436.795 FM
FUNcube-1 20 Oct 22:35:42 22:40:15 66° 74° (ENE) 22:44:48 145.950 - 145.970 MHz USB
Oscar 11 20 Oct 22:50:23 22:54:24 37° 263° (W) 22:58:26 145.825 FM, Beacon 2401.500 USB
HO-68 20 Oct 23:13:11 23:17:36 17° 271° (W) 23:22:03 435.675 MHz FM
KITSAT 1 20 Oct 23:18:46 23:26:44 64° 244° (WSW) 23:34:39 435.175 FM
ZACube-1 20 Oct 23:26:29 23:30:45 37° 263° (W) 23:35:01 437.345 MHz
RS-15 21 Oct 00:01:42 00:12:43 87° 122° (ESE) 00:23:43 29.354 - 29.394 USB, Beacon 29.352 USB
MaSat-1 21 Oct 00:11:44 00:13:22 12° 105° (ESE) 00:14:57 437.345 MHz
SO-50 21 Oct 00:13:45 00:18:06 34° 245° (WSW) 00:22:28 436.795 FM
FUNcube-1 21 Oct 00:14:52 00:17:03 13° 270° (W) 00:19:14 145.950 - 145.970 MHz USB
UOSAT-12 21 Oct 00:21:27 00:25:53 38° 47° (NE) 00:30:14 437.025 FM, 437.400 FM
KITSAT 1 21 Oct 01:18:18 01:20:31 11° 263° (W) 01:22:45 435.175 FM
Oscar 19 21 Oct 01:43:39 01:46:38 16° 90° (E) 01:49:37 437.125 CW, 437.150 USB
MaSat-1 21 Oct 01:44:32 01:48:46 65° 298° (WNW) 01:52:37 437.345 MHz
UOSAT-12 21 Oct 02:01:50 02:05:55 29° 246° (WSW) 02:09:56 437.025 FM, 437.400 FM
RS-15 21 Oct 02:16:47 02:26:30 35° 329° (NNW) 02:36:21 29.354 - 29.394 USB, Beacon 29.352 USB
JAS-1B 21 Oct 02:26:52 02:32:50 38° 98° (E) 02:39:45 435.800 - 435.900 CW/SSB
Oscar 16 21 Oct 02:27:16 02:32:06 40° 98° (E) 02:36:54 437.025 USB, Beacon 2401.1428
Uribyol 2 21 Oct 02:39:27 02:43:33 23° 93° (E) 02:47:36 436.500 FM
Gurwin Techsat 1B 21 Oct 02:40:31 02:42:04 11° 87° (E) 02:43:37 435.225 FM
ITAMSAT 1 21 Oct 02:44:15 02:48:27 24° 94° (E) 02:52:37 435.822 SSB
TMSAT-1 21 Oct 02:54:38 02:56:11 11° 87° (E) 02:57:43 436.925 FM
AO-Echo 21 Oct 02:57:18 03:02:19 42° 98° (E) 03:07:20 ?
Oscar 19 21 Oct 03:21:22 03:26:27 66° 287° (WNW) 03:31:31 437.125 CW, 437.150 USB
AO-27 21 Oct 03:28:02 03:33:14 61° 101° (ESE) 03:38:24 436.795 MHz FM
AO-7 21 Oct 03:45:06 03:45:31 10° 84° (E) 03:45:55 29.400 - 29.500 MHz
Sapphire 21 Oct 04:04:56 04:07:09 13° 102° (ESE) 04:09:22 437.095 MHz 1200 baud AX-25 AFSK
Oscar 16 21 Oct 04:07:02 04:11:15 26° 295° (WNW) 04:15:27 437.025 USB, Beacon 2401.1428
Gurwin Techsat 1B 21 Oct 04:17:25 04:22:46 89° 104° (ESE) 04:28:05 435.225 FM
JAS-1B 21 Oct 04:17:38 04:23:29 41° 292° (WNW) 04:30:16 435.800 - 435.900 CW/SSB
Uribyol 2 21 Oct 04:18:15 04:23:14 47° 290° (WNW) 04:28:11 436.500 FM
ITAMSAT 1 21 Oct 04:23:10 04:28:08 45° 291° (WNW) 04:33:04 435.822 SSB
PCSat 21 Oct 04:25:50 04:29:53 22° 107° (ESE) 04:33:58 145.825 MHz
TMSAT-1 21 Oct 04:31:29 04:36:50 89° 105° (ESE) 04:42:08 436.925 FM
RS-15 21 Oct 04:34:59 04:43:20 24° 4° (N) 04:51:51 29.354 - 29.394 USB, Beacon 29.352 USB
AO-Echo 21 Oct 04:36:27 04:40:51 28° 295° (WNW) 04:45:17 ?
Uosat F 21 Oct 04:39:43 04:42:49 16° 91° (E) 04:45:55 435.120 FM
AO-27 21 Oct 05:08:38 05:12:16 19° 299° (WNW) 05:15:54 436.795 MHz FM
OPAL 21 Oct 05:11:16 05:16:21 60° 70° (ENE) 05:21:23 ?
JAS-2 21 Oct 05:20:57 05:25:54 18° 87° (E) 05:30:54 435.800 - 435.900 CW/SSB, 435.910 FM
AO-7 21 Oct 05:31:44 05:39:58 61° 104° (ESE) 05:48:09 29.400 - 29.500 MHz
Sapphire 21 Oct 05:44:20 05:49:45 90° 134° (SE) 05:55:13 437.095 MHz 1200 baud AX-25 AFSK
Gurwin Techsat 1B 21 Oct 05:59:21 06:01:58 14° 302° (WNW) 06:04:35 435.225 FM
PCSat 21 Oct 06:07:33 06:12:52 56° 305° (NW) 06:18:14 145.825 MHz
TMSAT-1 21 Oct 06:13:24 06:15:59 14° 302° (WNW) 06:18:35 436.925 FM
Uosat F 21 Oct 06:17:02 06:22:02 63° 288° (WNW) 06:27:00 435.120 FM
STRAND 1 21 Oct 06:49:02 06:53:57 49° 70° (ENE) 06:58:55 ?
RS-15 21 Oct 06:49:26 06:59:47 42° 37° (NE) 07:10:26 29.354 - 29.394 USB, Beacon 29.352 USB
OPAL 21 Oct 06:52:09 06:55:35 18° 266° (W) 06:59:01 ?
Hamsat 21 Oct 07:00:14 07:04:23 58° 100° (E) 07:08:31 145.90 MHz
JAS-2 21 Oct 07:04:04 07:11:46 86° 104° (ESE) 07:19:40 435.800 - 435.900 CW/SSB, 435.910 FM
AO-7 21 Oct 07:25:07 07:32:19 35° 303° (WNW) 07:39:32 29.400 - 29.500 MHz
Sapphire 21 Oct 07:30:15 07:33:57 18° 320° (NW) 07:37:39 437.095 MHz 1200 baud AX-25 AFSK
PCSat 21 Oct 07:55:07 07:57:31 13° 326° (NNW) 07:59:56 145.825 MHz
SO-67 21 Oct 07:58:27 08:01:34 31° 97° (E) 08:04:41 435.3500 MHz FM
Saudisat 1A 21 Oct 08:06:11 08:08:23 14° 109° (ESE) 08:10:37 436.775 MHz
STRAND 1 21 Oct 08:29:34 08:33:24 21° 267° (W) 08:37:17 ?
Hamsat 21 Oct 08:37:44 08:39:52 14° 297° (WNW) 08:41:59 145.90 MHz
JAS-2 21 Oct 08:50:19 08:55:57 23° 302° (WNW) 09:01:44 435.800 - 435.900 CW/SSB, 435.910 FM
HO-68 21 Oct 08:50:37 08:54:30 15° 88° (E) 08:58:21 435.675 MHz FM
RS-15 21 Oct 09:01:56 09:13:01 72° 242° (WSW) 09:24:35 29.354 - 29.394 USB, Beacon 29.352 USB
SO-67 21 Oct 09:32:10 09:34:18 16° 293° (WNW) 09:36:26 435.3500 MHz FM
Saudisat 1A 21 Oct 09:43:02 09:47:24 68° 306° (NW) 09:51:49 436.775 MHz
UKube-1 21 Oct 09:53:05 09:55:08 13° 91° (E) 09:57:10 145.840 MHz, 145.915 MHz
MaSat-1 21 Oct 09:55:40 09:57:38 17° 52° (NE) 09:59:27 437.345 MHz
FUNcube-1 21 Oct 10:26:28 10:27:41 11° 88° (E) 10:28:54 145.950 - 145.970 MHz USB
HO-68 21 Oct 10:35:57 10:43:12 84° 106° (ESE) 10:50:24 435.675 MHz FM
Oscar 11 21 Oct 10:36:44 10:40:42 35° 97° (E) 10:44:39 145.825 FM, Beacon 2401.500 USB
ZACube-1 21 Oct 11:14:40 11:18:43 38° 97° (E) 11:22:39 437.345 MHz
RS-15 21 Oct 11:17:13 11:23:22 17° 263° (W) 11:29:40 29.354 - 29.394 USB, Beacon 29.352 USB
Saudisat 1A 21 Oct 11:25:49 11:27:49 13° 327° (NNW) 11:29:49 436.775 MHz
UKube-1 21 Oct 11:27:23 11:31:43 61° 287° (WNW) 11:36:00 145.840 MHz, 145.915 MHz
MaSat-1 21 Oct 11:31:37 11:33:13 15° 254° (WSW) 11:34:44 437.345 MHz
KITSAT 1 21 Oct 11:56:37 12:01:12 17° 100° (E) 12:05:47 435.175 FM
FUNcube-1 21 Oct 12:00:17 12:04:34 67° 286° (WNW) 12:08:44 145.950 - 145.970 MHz USB
Oscar 11 21 Oct 12:13:21 12:16:41 22° 294° (WNW) 12:20:00 145.825 FM, Beacon 2401.500 USB
HO-68 21 Oct 12:24:56 12:30:04 22° 306° (NW) 12:35:12 435.675 MHz FM
Sapphire 21 Oct 12:48:57 12:52:37 18° 40° (NE) 12:56:17 437.095 MHz 1200 baud AX-25 AFSK
ZACube-1 21 Oct 12:51:42 12:54:51 20° 295° (WNW) 12:57:57 437.345 MHz
Oscar 19 21 Oct 13:01:09 13:05:23 26° 65° (ENE) 13:09:37 437.125 CW, 437.150 USB
AO-27 21 Oct 13:10:48 13:13:38 15° 58° (ENE) 13:16:28 436.795 MHz FM
PCSat 21 Oct 13:11:31 13:16:03 26° 45° (NE) 13:20:33 145.825 MHz
JAS-1B 21 Oct 13:15:14 13:20:25 31° 65° (ENE) 13:25:20 435.800 - 435.900 CW/SSB
Oscar 16 21 Oct 13:45:08 13:50:15 66° 73° (ENE) 13:55:23 437.025 USB, Beacon 2401.1428
KITSAT 1 21 Oct 13:47:16 13:55:20 81° 119° (ESE) 14:03:26 435.175 FM
Uribyol 2 21 Oct 13:58:06 14:02:54 39° 68° (ENE) 14:07:44 436.500 FM
Gurwin Techsat 1B 21 Oct 14:01:28 14:05:26 22° 62° (ENE) 14:09:24 435.225 FM
ISS 21 Oct 14:02:21 14:04:50 20° 134° (SE) 14:07:19 145.800 FM
ITAMSAT 1 21 Oct 14:03:05 14:07:55 40° 68° (ENE) 14:12:47 435.822 SSB
AO-Echo 21 Oct 14:11:20 14:16:04 57° 72° (ENE) 14:20:59 ?
TMSAT-1 21 Oct 14:15:15 14:19:12 22° 62° (ENE) 14:23:09 436.925 FM
SO-50 21 Oct 14:29:02 14:33:28 64° 121° (ESE) 14:38:04 436.795 FM
Sapphire 21 Oct 14:31:22 14:36:50 89° 61° (ENE) 14:42:16 437.095 MHz 1200 baud AX-25 AFSK
Oscar 19 21 Oct 14:39:39 14:44:31 41° 262° (W) 14:49:23 437.125 CW, 437.150 USB
AO-7 21 Oct 14:42:24 14:48:13 22° 50° (NE) 14:54:03 29.400 - 29.500 MHz
AO-27 21 Oct 14:47:15 14:52:27 81° 256° (WSW) 14:57:43 436.795 MHz FM
PCSat 21 Oct 14:54:30 14:59:49 56° 245° (WSW) 15:05:05 145.825 MHz
JAS-1B 21 Oct 15:05:27 15:11:04 37° 262° (W) 15:16:20 435.800 - 435.900 CW/SSB
Oscar 16 21 Oct 15:26:59 15:30:04 16° 270° (W) 15:33:09 437.025 USB, Beacon 2401.1428
ISS 21 Oct 15:37:59 15:41:16 58° 331° (NNW) 15:44:35 145.800 FM
Uribyol 2 21 Oct 15:38:02 15:42:27 28° 265° (W) 15:46:55 436.500 FM
Gurwin Techsat 1B 21 Oct 15:39:49 15:45:00 54° 260° (W) 15:50:13 435.225 FM
Oscar 10/S400 21 Oct 15:41:20 15:58:37 44° 158° (SSE) 16:32:10 145.825 - 145.975 CW/USB, Beacon 145.810 USB
ITAMSAT 1 21 Oct 15:43:11 15:47:31 27° 265° (W) 15:51:54 435.822 SSB
KITSAT 1 21 Oct 15:44:41 15:51:37 30° 322° (NW) 15:58:34 435.175 FM
AO-Echo 21 Oct 15:52:09 15:55:15 17° 270° (W) 15:58:26 ?
TMSAT-1 21 Oct 15:53:32 15:58:43 54° 260° (W) 16:03:56 436.925 FM
Uosat F 21 Oct 15:53:41 15:57:48 26° 64° (ENE) 16:01:56 435.120 FM
SO-50 21 Oct 16:11:02 16:14:28 21° 321° (NW) 16:17:59 436.795 FM
UOSAT-12 21 Oct 16:13:03 16:17:38 66° 121° (ESE) 16:22:19 437.025 FM, 437.400 FM
Sapphire 21 Oct 16:17:06 16:19:27 13° 258° (WSW) 16:21:48 437.095 MHz 1200 baud AX-25 AFSK
Saudisat 1A 21 Oct 16:29:56 16:33:12 20° 40° (NE) 16:36:28 436.775 MHz
AO-7 21 Oct 16:31:36 16:39:53 85° 70° (ENE) 16:48:13 29.400 - 29.500 MHz
ISS 21 Oct 17:15:51 17:18:29 21° 350° (N) 17:21:07 145.800 FM
JAS-2 21 Oct 17:17:54 17:23:19 41° 65° (ENE) 17:29:24 435.800 - 435.900 CW/SSB, 435.910 FM
OPAL 21 Oct 17:22:09 17:24:25 13° 91° (E) 17:26:41 ?
Uosat F 21 Oct 17:31:41 17:36:23 40° 262° (W) 17:41:08 435.120 FM
KITSAT 1 21 Oct 17:46:12 17:50:12 14° 351° (N) 17:54:13 435.175 FM
Hamsat 21 Oct 17:54:24 17:58:27 46° 72° (ENE) 18:02:29 145.90 MHz
UOSAT-12 21 Oct 17:54:40 17:58:14 21° 320° (NW) 18:01:50 437.025 FM, 437.400 FM
Saudisat 1A 21 Oct 18:08:48 18:13:11 63° 239° (WSW) 18:17:32 436.775 MHz
